Regional Weather Roundup
Issued by NWS Upton, NY

Current Version | Previous Version | Text Only | Print | Product List | Glossary On
Versions: 1 2 3 4 5 6 7 8 9 10 11 12 13 14 15 16 17 18 19 20 21 22 23 24 25 26 27
000 ASUS41 KOKX 231408 RWROKX REGIONAL WEATHER ROUNDUP NATIONAL WEATHER SERVICE NEW YORK NY 1000 AM EDT WED AUG 23 2017 NOTE: "FAIR" INDICATES FEW OR NO CLOUDS BELOW 12,000 FEET WITH NO SIGNIFICANT WEATHER AND/OR OBSTRUCTIONS TO VISIBILITY. NYZ071-072-176-178-NJZ106-104-231500- NEW YORK CITY METRO AREA CITY SKY/WX TMP DP RH WIND PRES REMARKS Central Park MOSUNNY 73 54 51 VRB3 29.86R Bronx Bot Gard N/A 73 55 53 NW9 29.84R LaGuardia APRT PTSUNNY 76 58 53 NW14 29.82R Kennedy INTL CLOUDY 77 59 53 NW10 29.83R Breezy Point N/A 75 N/A N/A NW7 N/A Newark/Liberty MOSUNNY 77 64 64 N9 29.83R Teterboro MOSUNNY 76 55 48 N10 29.82R $$ NYZ177-179-078>081-231500- LONG ISLAND NEW YORK CITY SKY/WX TMP DP RH WIND PRES REMARKS Jones Beach N/A 73 N/A N/A NW12 N/A Matinecock PT N/A 73 N/A N/A W9 N/A Farmingdale CLOUDY 74 64 71 NW7 29.82R MacArthur/ISP CLOUDY 76 68 76 W8 29.81R Shirley CLOUDY 77 72 84 NW7 29.81R Mt Sinai Harb N/A 73 N/A N/A W7 N/A Westhampton CLOUDY 76 70 82 W6 29.82R East Hampton CLOUDY 76 69 79 W6 29.79S Montauk N/A 76 72 87 W6 29.80R $$ NYZ052-065-067-231500- HUDSON VALLEY CITY SKY/WX TMP DP RH WIND PRES REMARKS White Plains MOSUNNY 75 62 64 NW7 29.82R Larchmont Harb N/A 72 N/A N/A NW10G16 N/A Croton On Huds N/A 75 N/A N/A NW13 N/A Newburgh MOSUNNY 72 57 60 NW12G17 29.86R Montgomery MOSUNNY 72 56 57 N9 29.85R Poughkeepsie MOSUNNY 73 54 51 NW13 29.83R Albany PTSUNNY 70 55 59 NW15G22 29.84R $$ NJZ001-105-106-008-010-013-015-019>022-104-231500- NEW JERSEY CITY SKY/WX TMP DP RH WIND PRES REMARKS Newark/Liberty MOSUNNY 77 64 64 N9 29.83R Teterboro MOSUNNY 76 55 48 N10 29.82R Caldwell MOSUNNY 75 57 53 MISG 29.85R Somerville CLOUDY 75 59 57 N9 29.85R Linden PTSUNNY 74 62 67 NW9 29.83S Perth Amboy N/A 73 N/A N/A NW15 N/A Sussex MOSUNNY 71 55 56 N8 29.87R Andover N/A 71 54 54 N7 29.88R Trenton MOSUNNY 75 66 73 NW6 29.85R Millville MOSUNNY 82 74 76 N8 29.84R Atlantic City MOSUNNY 81 72 74 NW10 29.84R Wrightstown CLOUDY 77 67 70 N12 29.82R Toms River MOSUNNY 76 71 85 NW9 29.84R Belmar CLOUDY 75 70 83 W12 29.85R $$ PAZ047>061-062-071-231500- EASTERN PENNSYLVANIA CITY SKY/WX TMP DP RH WIND PRES REMARKS Philadelphia PTSUNNY 78 63 59 N16G23 29.85R Allentown SUNNY 73 55 53 NW8 29.88R Scranton MOSUNNY 70 54 56 N7 29.90S $$ CTZ002-004>006-009-010-012-RIZ004-006-007-MAZ004-011-015-231500- SOUTHERN NEW ENGLAND IN CT CITY SKY/WX TMP DP RH WIND PRES REMARKS Bradley INTL PTSUNNY 75 55 49 NW12G21 29.81R Hartford MOSUNNY 75 62 64 N9 29.80R Danbury PTSUNNY 75 63 66 NW9 29.84R Wtrbury/Oxford PTSUNNY 70 57 63 N7 29.84R Norwalk Harbor N/A 73 N/A N/A NW13 N/A Bridgeport CLOUDY 77 67 71 NW10 29.80R Meriden CLOUDY 75 58 55 NW12 29.81R New Haven CLOUDY 77 67 71 NW6 29.80R Chester PTSUNNY 75 68 78 NW8G15 29.81R Groton CLOUDY 78 69 73 W7 29.78S Wilimantic CLOUDY 74 64 71 N8 29.81R IN RI CITY SKY/WX TMP DP RH WIND PRES REMARKS Providence CLOUDY 78 70 76 NW8 29.78R Block Island CLOUDY 73 70 90 SW10 29.80S Westerly CLOUDY 78 70 76 VRB6 29.79S IN MA CITY SKY/WX TMP DP RH WIND PRES REMARKS Boston PTSUNNY 79 67 66 NW14G20 29.75R Worcester MOSUNNY 71 55 56 W10 29.81R Westfield SUNNY 74 56 53 NW7G20 29.81R Provincetown PTSUNNY 73 70 90 S12 29.77R Nantucket CLOUDY 73 72 96 SW12 29.80R $$ ANZ330-335-338-340-345-350-353-355-231500- COASTAL MARINE OBSERVATIONS STATION/POSITION TIME SKY/WX TEMP WIND PRES VSBY WAVE AIR SEA DIR/SP/G HT/PER (UTC) (F) (DEG/KT/KT) (MB) (MI) (FT/S) NY HARB ENTRANCE 1250 75 75 280/ 10/ 12 1008.6 3/ 6 GREAT SOUTH BAY 1330 76 78 290/ 8/ 10 N/A 23 SSW MONTAUK P 1250 72 71 1008.9 5/ 7 15 E BARNEGAT LI 1330 76 N/A 4/ 6 HUDSON CANYON 1250 76 76 210/ 8/ 10 1008.8 5/ 6 KINGS POINT 1324 72 74 350/ 13/ 16 1009.5 EXECUTION ROCKS NOT AVBL WESTERN LI SOUND NOT AVBL CENTRAL LI SOUND NOT AVBL EASTERN LI SOUND NOT AVBL ROBBINS REEF 1324 330/ 13/ 16 1010.5 $$ >>>>>>>>>>>>>>>>>>>>>>>>>>>> KEY <<<<<<<<<<<<<<<<<<<<<<<<<<< > < > SKY/WX - Sky Condition/Present Weather < > TMP - Temperature in Fahrenheit < > DP - Dew Point in Fahrenheit < > RH - Relative Humidity in Percent < > WIND - Direction (from) and Speed in MPH < > PRES - Mean Sea Level Pressure (inches of Hg) < > WCI - Wind Chill Index < > VSB - VISIBILITY IN MILES < > HX - HEAT INDEX < > TC - TEMPERATURE IN CELSIUS < > VRB - VARIABLE WIND DIRECTION < > < >>>>>>>>>>>>>>>>>>>>>>>>>>>> KEY <<<<<<<<<<<<<<<<<<<<<<<<<<<

USA.gov is the U.S. government's official web portal to all federal, state and local government web resources and services.